Time,TemperatureF,DewpointF,PressureIn,WindDirection,WindDirectionDegrees,WindSpeedMPH,WindSpeedGustMPH,Humidity,HourlyPrecipIn,Conditions,Clouds,dailyrainin,SoftwareType,DateUTC
2013-05-20 00:01:00,59.4,58.0,0.00,NW,320,0.0,0.0,95,0.00,FEW,FEW,0.00,WeatherDisplay:10.37,2013-05-20 04:01:00,
2013-05-20 00:02:00,59.4,58.0,0.00,NW,320,0.0,0.0,95,0.00,FEW,FEW,0.00,WeatherDisplay:10.37,2013-05-20 04:02:00,
2013-05-20 00:07:00,59.3,57.9,0.00,NW,320,0.0,0.1,95,0.00,FEW,FEW,0.00,WeatherDisplay:10.37,2013-05-20 04:07:00,
2013-05-20 00:13:00,59.4,58.0,0.00,NW,320,0.0,0.0,95,0.00,FEW,FEW,0.00,WeatherDisplay:10.37,2013-05-20 04:13:00,
2013-05-20 00:18:00,59.3,58.2,0.00,NW,320,0.0,0.0,96,0.00,FEW,FEW,0.00,WeatherDisplay:10.37,2013-05-20 04:18:00,
2013-05-20 00:23:00,59.2,58.1,0.00,North,6,0.0,0.4,96,0.00,FEW,FEW,0.00,WeatherDisplay:10.37,2013-05-20 04:23:00,
2013-05-20 00:28:00,59.1,58.0,0.00,North,6,0.0,0.0,96,0.00,FEW,FEW,0.00,WeatherDisplay:10.37,2013-05-20 04:28:00,
2013-05-20 00:33:00,59.1,58.0,0.00,North,6,0.0,0.0,96,0.00,FEW,FEW,0.00,WeatherDisplay:10.37,2013-05-20 04:33:00,
2013-05-20 00:38:00,59.2,58.1,0.00,WSW,239,2.3,2.3,96,0.00,FEW,FEW,0.00,WeatherDisplay:10.37,2013-05-20 04:38:00,
2013-05-20 00:44:00,59.1,58.0,0.00,NNE,30,1.4,1.4,96,0.00,FEW,FEW,0.00,WeatherDisplay:10.37,2013-05-20 04:44:00,
2013-05-20 00:49:00,59.1,58.0,0.00,NE,45,0.0,0.0,96,0.00,FEW,FEW,0.00,WeatherDisplay:10.37,2013-05-20 04:49:00,
2013-05-20 00:54:00,59.1,58.0,0.00,NE,41,0.0,0.0,96,0.00,FEW,FEW,0.00,WeatherDisplay:10.37,2013-05-20 04:54:00,
2013-05-20 00:59:00,59.1,58.0,0.00,NE,41,0.0,0.0,96,0.00,FEW,FEW,0.00,WeatherDisplay:10.37,2013-05-20 04:59:00,
2013-05-20 01:04:00,59.1,58.0,0.00,NNE,17,0.0,0.0,96,0.00,FEW,FEW,0.00,WeatherDisplay:10.37,2013-05-20 05:04:00,
2013-05-20 01:10:00,59.1,58.0,0.00,NNE,17,0.0,0.0,96,0.00,FEW,FEW,0.00,WeatherDisplay:10.37,2013-05-20 05:10:00,
2013-05-20 01:15:00,59.1,58.2,0.00,NNE,17,0.0,0.0,97,0.00,FEW,FEW,0.00,WeatherDisplay:10.37,2013-05-20 05:15:00,
2013-05-20 01:20:00,59.2,58.3,0.00,NNE,17,0.0,0.0,97,0.00,FEW,FEW,0.00,WeatherDisplay:10.37,2013-05-20 05:20:00,
2013-05-20 01:25:00,59.2,58.1,0.00,NNE,17,0.0,0.0,96,0.00,FEW,FEW,0.00,WeatherDisplay:10.37,2013-05-20 05:25:00,
2013-05-20 01:30:00,59.2,58.1,0.00,NNE,17,0.0,0.0,96,0.00,FEW,FEW,0.00,WeatherDisplay:10.37,2013-05-20 05:30:00,
2013-05-20 01:35:00,59.2,58.3,0.00,NNE,17,0.0,0.0,97,0.03,RA,RA,0.03,WeatherDisplay:10.37,2013-05-20 05:35:00,
2013-05-20 01:40:00,59.3,58.4,0.00,NNE,17,0.0,0.0,97,0.03,RA,RA,0.03,WeatherDisplay:10.37,2013-05-20 05:40:00,
2013-05-20 01:46:00,59.3,58.4,0.00,NNE,17,0.0,0.0,97,0.03,FEW,FEW,0.03,WeatherDisplay:10.37,2013-05-20 05:46:00,
2013-05-20 01:51:00,59.3,58.4,0.00,WNW,295,2.3,2.3,97,0.03,FEW,FEW,0.03,WeatherDisplay:10.37,2013-05-20 05:51:00,
2013-05-20 01:56:00,59.3,58.4,0.00,WNW,295,0.0,0.0,97,0.03,FEW,FEW,0.03,WeatherDisplay:10.37,2013-05-20 05:56:00,
2013-05-20 02:01:00,59.3,58.4,0.00,WNW,295,0.0,0.0,97,0.03,FEW,FEW,0.03,WeatherDisplay:10.37,2013-05-20 06:01:00,
2013-05-20 02:06:00,59.4,58.3,0.00,WNW,295,0.0,0.0,96,0.03,FEW,FEW,0.03,WeatherDisplay:10.37,2013-05-20 06:06:00,
2013-05-20 02:11:00,59.4,58.5,0.00,WNW,295,0.0,0.0,97,0.03,FEW,FEW,0.03,WeatherDisplay:10.37,2013-05-20 06:11:00,
2013-05-20 02:16:00,59.5,58.6,0.00,WNW,295,0.0,0.0,97,0.03,FEW,FEW,0.03,WeatherDisplay:10.37,2013-05-20 06:16:00,
2013-05-20 02:21:00,59.4,58.3,0.00,WNW,295,0.0,0.0,96,0.03,FEW,FEW,0.03,WeatherDisplay:10.37,2013-05-20 06:21:00,
2013-05-20 02:26:00,59.5,58.4,0.00,SW,232,0.0,0.0,96,0.03,FEW,FEW,0.03,WeatherDisplay:10.37,2013-05-20 06:26:00,
2013-05-20 02:31:00,59.5,58.6,0.00,West,278,1.2,0.0,97,0.02,FEW,FEW,0.03,WeatherDisplay:10.37,2013-05-20 06:31:00,
2013-05-20 02:37:00,59.4,58.3,0.00,West,278,0.0,0.0,96,0.00,FEW,FEW,0.03,WeatherDisplay:10.37,2013-05-20 06:37:00,
2013-05-20 02:42:00,59.5,58.4,0.00,West,278,0.0,0.0,96,0.00,FEW,FEW,0.03,WeatherDisplay:10.37,2013-05-20 06:42:00,
2013-05-20 02:47:00,59.5,58.4,0.00,West,278,0.0,0.0,96,0.00,FEW,FEW,0.03,WeatherDisplay:10.37,2013-05-20 06:47:00,
2013-05-20 02:52:00,59.5,58.4,0.00,West,278,0.0,0.0,96,0.00,FEW,FEW,0.03,WeatherDisplay:10.37,2013-05-20 06:52:00,
2013-05-20 02:57:00,59.5,58.6,0.00,West,278,0.0,0.0,97,0.00,FEW,FEW,0.03,WeatherDisplay:10.37,2013-05-20 06:57:00,
2013-05-20 03:02:00,59.5,58.6,0.00,West,278,0.0,0.0,97,0.00,FEW,FEW,0.03,WeatherDisplay:10.37,2013-05-20 07:02:00,
2013-05-20 03:07:00,59.5,58.6,0.00,West,278,0.0,0.0,97,0.00,FEW,FEW,0.03,WeatherDisplay:10.37,2013-05-20 07:07:00,
2013-05-20 03:13:00,59.5,58.4,0.00,West,278,0.0,0.0,96,0.00,FEW,FEW,0.03,WeatherDisplay:10.37,2013-05-20 07:13:00,
2013-05-20 03:18:00,59.4,58.5,0.00,West,278,0.0,0.0,97,0.00,FEW,FEW,0.03,WeatherDisplay:10.37,2013-05-20 07:18:00,
2013-05-20 03:23:00,59.6,58.5,0.00,West,278,0.0,0.0,96,0.00,FEW,FEW,0.03,WeatherDisplay:10.37,2013-05-20 07:23:00,
2013-05-20 03:28:00,59.6,58.7,0.00,West,278,0.0,0.0,97,0.00,FEW,FEW,0.03,WeatherDisplay:10.37,2013-05-20 07:28:00,
2013-05-20 03:33:00,59.6,58.5,0.00,West,278,0.0,0.0,96,0.00,FEW,FEW,0.03,WeatherDisplay:10.37,2013-05-20 07:33:00,
2013-05-20 03:38:00,59.7,58.8,0.00,West,278,0.0,0.0,97,0.00,FEW,FEW,0.03,WeatherDisplay:10.37,2013-05-20 07:38:00,
2013-05-20 03:44:00,59.7,58.8,0.00,West,278,0.0,0.0,97,0.00,FEW,FEW,0.03,WeatherDisplay:10.37,2013-05-20 07:44:00,
2013-05-20 03:49:00,59.7,58.8,0.00,West,278,0.0,0.0,97,0.00,FEW,FEW,0.03,WeatherDisplay:10.37,2013-05-20 07:49:00,
2013-05-20 03:54:00,59.7,58.8,0.00,West,278,0.0,0.0,97,0.00,FEW,FEW,0.03,WeatherDisplay:10.37,2013-05-20 07:54:00,
2013-05-20 03:59:00,59.8,58.9,0.00,West,278,0.0,0.0,97,0.00,FEW,FEW,0.03,WeatherDisplay:10.37,2013-05-20 07:59:00,
2013-05-20 04:05:00,59.8,58.9,0.00,West,278,0.0,0.0,97,0.00,FEW,FEW,0.03,WeatherDisplay:10.37,2013-05-20 08:05:00,
2013-05-20 04:10:00,59.8,58.9,0.00,West,278,0.0,0.0,97,0.00,FEW,FEW,0.03,WeatherDisplay:10.37,2013-05-20 08:10:00,
2013-05-20 04:15:00,59.8,58.7,0.00,West,278,0.0,0.0,96,0.00,FEW,FEW,0.03,WeatherDisplay:10.37,2013-05-20 08:15:00,
2013-05-20 04:20:00,59.8,58.9,0.00,West,278,0.0,0.0,97,0.00,FEW,FEW,0.03,WeatherDisplay:10.37,2013-05-20 08:20:00,
2013-05-20 04:25:00,59.8,58.9,0.00,SSW,213,2.3,0.0,97,0.00,FEW,FEW,0.03,WeatherDisplay:10.37,2013-05-20 08:25:00,
2013-05-20 04:30:00,59.7,58.8,0.00,SSW,213,0.0,0.0,97,0.00,FEW,FEW,0.03,WeatherDisplay:10.37,2013-05-20 08:30:00,
2013-05-20 04:35:00,59.7,58.8,0.00,SSW,213,0.0,0.0,97,0.00,FEW,FEW,0.03,WeatherDisplay:10.37,2013-05-20 08:35:00,
2013-05-20 04:40:00,59.7,58.8,0.00,SSW,206,0.0,0.0,97,0.00,FEW,FEW,0.03,WeatherDisplay:10.37,2013-05-20 08:40:00,
2013-05-20 04:45:00,59.8,58.9,0.00,SSW,206,0.0,1.0,97,0.00,FEW,FEW,0.03,WeatherDisplay:10.37,2013-05-20 08:45:00,
2013-05-20 04:51:00,59.8,58.9,0.00,SSW,206,0.0,0.0,97,0.00,FEW,FEW,0.03,WeatherDisplay:10.37,2013-05-20 08:51:00,
2013-05-20 04:56:00,59.8,58.9,0.00,SSW,206,0.0,0.0,97,0.00,FEW,FEW,0.03,WeatherDisplay:10.37,2013-05-20 08:56:00,
2013-05-20 05:01:00,59.9,59.0,0.00,SSW,206,0.0,0.0,97,0.00,FEW,FEW,0.03,WeatherDisplay:10.37,2013-05-20 09:01:00,
2013-05-20 05:06:00,59.9,59.0,0.00,SSW,206,0.0,0.0,97,0.00,FEW,FEW,0.03,WeatherDisplay:10.37,2013-05-20 09:06:00,
2013-05-20 05:11:00,60.0,59.1,0.00,SW,220,2.3,2.3,97,0.00,FEW,FEW,0.03,WeatherDisplay:10.37,2013-05-20 09:11:00,
2013-05-20 05:16:00,59.9,59.0,0.00,South,189,0.0,0.0,97,0.00,FEW,FEW,0.03,WeatherDisplay:10.37,2013-05-20 09:16:00,
2013-05-20 05:22:00,59.9,59.0,0.00,SSW,192,2.3,2.3,97,0.00,FEW,FEW,0.03,WeatherDisplay:10.37,2013-05-20 09:22:00,
2013-05-20 05:27:00,59.9,59.0,0.00,SSW,192,0.0,0.0,97,0.00,FEW,FEW,0.03,WeatherDisplay:10.37,2013-05-20 09:27:00,
2013-05-20 05:32:00,60.0,59.1,0.00,SSW,192,0.0,0.0,97,0.00,FEW,FEW,0.03,WeatherDisplay:10.37,2013-05-20 09:32:00,
2013-05-20 05:37:00,60.1,59.2,0.00,SSW,192,0.0,0.0,97,0.00,FEW,FEW,0.03,WeatherDisplay:10.37,2013-05-20 09:37:00,
2013-05-20 05:42:00,60.1,59.2,0.00,SSW,192,0.0,0.0,97,0.00,FEW,FEW,0.03,WeatherDisplay:10.37,2013-05-20 09:42:00,
2013-05-20 05:47:00,60.1,59.2,0.00,SSW,200,0.7,0.7,97,0.00,FEW,FEW,0.03,WeatherDisplay:10.37,2013-05-20 09:47:00,
2013-05-20 05:52:00,60.1,59.2,0.00,SSW,200,0.0,0.0,97,0.00,FEW,FEW,0.03,WeatherDisplay:10.37,2013-05-20 09:52:00,
2013-05-20 05:58:00,60.1,59.2,0.00,SSW,200,0.0,0.0,97,0.00,FEW,FEW,0.03,WeatherDisplay:10.37,2013-05-20 09:58:00,
2013-05-20 06:03:00,60.1,59.2,0.00,SSW,200,0.0,0.0,97,0.00,FEW,FEW,0.03,WeatherDisplay:10.37,2013-05-20 10:03:00,
2013-05-20 06:08:00,60.1,59.2,0.00,SW,233,0.0,0.0,97,0.00,FEW,FEW,0.03,WeatherDisplay:10.37,2013-05-20 10:08:00,
2013-05-20 06:13:00,60.2,59.3,0.00,SW,233,0.0,0.0,97,0.00,FEW,FEW,0.03,WeatherDisplay:10.37,2013-05-20 10:13:00,
2013-05-20 06:18:00,60.2,59.3,0.00,SW,233,0.0,0.0,97,0.00,FEW,FEW,0.03,WeatherDisplay:10.37,2013-05-20 10:18:00,
2013-05-20 06:24:00,60.2,59.3,0.00,SW,233,0.0,0.0,97,0.00,FEW,FEW,0.03,WeatherDisplay:10.37,2013-05-20 10:24:00,
2013-05-20 06:29:00,60.2,59.3,0.00,SW,233,1.2,1.2,97,0.00,FEW,FEW,0.03,WeatherDisplay:10.37,2013-05-20 10:29:00,
2013-05-20 06:34:00,60.1,59.2,0.00,SW,227,0.0,0.0,97,0.00,FEW,FEW,0.03,WeatherDisplay:10.37,2013-05-20 10:34:00,
2013-05-20 06:39:00,60.2,59.6,0.00,SW,227,0.0,0.0,98,0.00,FEW,FEW,0.03,WeatherDisplay:10.37,2013-05-20 10:39:00,
2013-05-20 06:44:00,60.2,59.6,0.00,SW,227,0.0,0.0,98,0.00,FEW,FEW,0.03,WeatherDisplay:10.37,2013-05-20 10:44:00,
2013-05-20 06:49:00,60.2,59.6,0.00,SW,227,0.0,0.0,98,0.00,FEW,FEW,0.03,WeatherDisplay:10.37,2013-05-20 10:49:00,
2013-05-20 06:54:00,60.3,59.7,0.00,SW,227,0.0,0.0,98,0.00,FEW,FEW,0.03,WeatherDisplay:10.37,2013-05-20 10:54:00,
2013-05-20 07:00:00,60.3,59.7,0.00,SW,227,0.0,0.0,98,0.00,FEW,FEW,0.03,WeatherDisplay:10.37,2013-05-20 11:00:00,
2013-05-20 07:05:00,60.4,59.8,0.00,WNW,292,3.5,3.5,98,0.00,FEW,FEW,0.03,WeatherDisplay:10.37,2013-05-20 11:05:00,
2013-05-20 07:10:00,60.4,59.8,0.00,SSW,205,3.5,3.5,98,0.00,FEW,FEW,0.03,WeatherDisplay:10.37,2013-05-20 11:10:00,
2013-05-20 07:15:00,60.4,59.8,0.00,WNW,291,4.6,4.6,98,0.00,FEW,FEW,0.03,WeatherDisplay:10.37,2013-05-20 11:15:00,
2013-05-20 07:20:00,60.4,59.8,0.00,WSW,257,2.3,2.3,98,0.00,FEW,FEW,0.03,WeatherDisplay:10.37,2013-05-20 11:20:00,
2013-05-20 07:26:00,60.4,59.8,0.00,WSW,256,3.5,3.5,98,0.00,FEW,FEW,0.03,WeatherDisplay:10.37,2013-05-20 11:26:00,
2013-05-20 07:31:00,60.4,60.1,0.00,WSW,243,0.0,6.0,99,0.00,FEW,FEW,0.03,WeatherDisplay:10.37,2013-05-20 11:31:00,
2013-05-20 07:36:00,60.4,60.1,0.00,ESE,106,2.3,2.3,99,0.00,FEW,FEW,0.03,WeatherDisplay:10.37,2013-05-20 11:36:00,
2013-05-20 07:41:00,60.5,60.2,0.00,SSW,208,1.2,0.0,99,0.00,FEW,FEW,0.03,WeatherDisplay:10.37,2013-05-20 11:41:00,
2013-05-20 07:46:00,60.6,60.0,0.00,WSW,253,2.3,2.3,98,0.00,FEW,FEW,0.03,WeatherDisplay:10.37,2013-05-20 11:46:00,
2013-05-20 07:51:00,60.7,60.1,0.00,WSW,251,2.3,2.3,98,0.00,FEW,FEW,0.03,WeatherDisplay:10.37,2013-05-20 11:51:00,
2013-05-20 07:56:00,60.9,60.6,0.00,WSW,239,4.3,4.3,99,0.00,FEW,FEW,0.03,WeatherDisplay:10.37,2013-05-20 11:56:00,
2013-05-20 08:02:00,61.0,60.7,0.00,WSW,250,5.8,5.8,99,0.00,FEW,FEW,0.03,WeatherDisplay:10.37,2013-05-20 12:02:00,
2013-05-20 08:07:00,61.0,60.7,0.00,SW,220,6.9,6.9,99,0.00,FEW,FEW,0.03,WeatherDisplay:10.37,2013-05-20 12:07:00,
2013-05-20 08:12:00,61.1,60.8,0.00,WSW,254,6.7,6.7,99,0.00,FEW,FEW,0.03,WeatherDisplay:10.37,2013-05-20 12:12:00,
2013-05-20 08:17:00,61.2,61.2,0.00,WSW,243,6.9,6.9,100,0.00,FEW,FEW,0.03,WeatherDisplay:10.37,2013-05-20 12:17:00,
2013-05-20 08:22:00,61.2,61.2,0.00,West,277,5.8,5.8,100,0.00,FEW,FEW,0.03,WeatherDisplay:10.37,2013-05-20 12:22:00,
2013-05-20 08:28:00,61.2,61.2,0.00,West,278,6.9,6.9,100,0.00,FEW,FEW,0.03,WeatherDisplay:10.37,2013-05-20 12:28:00,
2013-05-20 08:33:00,61.3,61.3,0.00,WSW,239,6.9,6.9,100,0.00,FEW,FEW,0.03,WeatherDisplay:10.37,2013-05-20 12:33:00,
2013-05-20 08:38:00,61.3,61.3,0.00,SW,233,6.9,6.9,100,0.00,FEW,FEW,0.03,WeatherDisplay:10.37,2013-05-20 12:38:00,
2013-05-20 08:43:00,61.4,61.4,0.00,WSW,257,5.8,5.8,100,0.00,FEW,FEW,0.03,WeatherDisplay:10.37,2013-05-20 12:43:00,
2013-05-20 08:48:00,61.5,61.5,0.00,WSW,257,4.5,4.5,100,0.00,FEW,FEW,0.03,WeatherDisplay:10.37,2013-05-20 12:48:00,
2013-05-20 08:53:00,61.6,61.6,0.00,WSW,248,6.2,6.2,100,0.00,FEW,FEW,0.03,WeatherDisplay:10.37,2013-05-20 12:53:00,
2013-05-20 08:59:00,61.7,61.7,0.00,WSW,241,6.9,6.9,100,0.00,FEW,FEW,0.03,WeatherDisplay:10.37,2013-05-20 12:59:00,
2013-05-20 09:04:00,61.8,61.8,0.00,WSW,248,8.1,8.1,100,0.00,FEW,FEW,0.03,WeatherDisplay:10.37,2013-05-20 13:04:00,
2013-05-20 09:09:00,61.9,61.9,0.00,SW,236,5.8,5.8,100,0.00,FEW,FEW,0.03,WeatherDisplay:10.37,2013-05-20 13:09:00,
2013-05-20 09:14:00,62.1,62.1,0.00,WSW,258,5.3,5.3,100,0.00,FEW,FEW,0.03,WeatherDisplay:10.37,2013-05-20 13:14:00,
2013-05-20 09:19:00,62.3,62.3,0.00,WSW,250,5.8,5.8,100,0.00,FEW,FEW,0.03,WeatherDisplay:10.37,2013-05-20 13:19:00,
2013-05-20 09:24:00,62.4,62.4,0.00,SW,229,4.6,4.6,100,0.00,FEW,FEW,0.03,WeatherDisplay:10.37,2013-05-20 13:24:00,
2013-05-20 09:30:00,62.5,62.5,0.00,WNW,299,4.6,4.6,100,0.00,FEW,FEW,0.03,WeatherDisplay:10.37,2013-05-20 13:30:00,
2013-05-20 09:35:00,62.6,62.6,0.00,WSW,251,4.2,4.2,100,0.00,FEW,FEW,0.03,WeatherDisplay:10.37,2013-05-20 13:35:00,
2013-05-20 09:40:00,62.9,62.9,0.00,SW,232,4.3,4.3,100,0.00,FEW,FEW,0.03,WeatherDisplay:10.37,2013-05-20 13:40:00,
2013-05-20 09:45:00,63.1,63.1,0.00,WSW,247,6.9,6.9,100,0.00,FEW,FEW,0.03,WeatherDisplay:10.37,2013-05-20 13:45:00,
2013-05-20 09:50:00,63.3,63.3,0.00,WSW,254,9.2,9.2,100,0.00,FEW,FEW,0.03,WeatherDisplay:10.37,2013-05-20 13:50:00,
2013-05-20 09:55:00,63.5,63.5,0.00,SW,233,8.2,8.2,100,0.00,FEW,FEW,0.03,WeatherDisplay:10.37,2013-05-20 13:55:00,
2013-05-20 10:01:00,63.8,63.8,0.00,ESE,106,5.8,5.8,100,0.00,FEW,FEW,0.03,WeatherDisplay:10.37,2013-05-20 14:01:00,
2013-05-20 10:06:00,64.0,63.7,0.00,East,83,2.3,2.3,99,0.00,FEW,FEW,0.03,WeatherDisplay:10.37,2013-05-20 14:06:00,
2013-05-20 10:11:00,64.3,64.0,0.00,West,260,5.1,5.1,99,0.00,FEW,FEW,0.03,WeatherDisplay:10.37,2013-05-20 14:11:00,
2013-05-20 10:16:00,64.6,64.3,0.00,SSW,213,6.9,6.9,99,0.00,FEW,FEW,0.03,WeatherDisplay:10.37,2013-05-20 14:16:00,
2013-05-20 10:22:00,64.9,64.3,0.00,WSW,237,9.2,9.2,98,0.00,FEW,FEW,0.03,WeatherDisplay:10.37,2013-05-20 14:22:00,
2013-05-20 10:27:00,65.3,64.7,0.00,NNW,335,6.9,6.9,98,0.01,RA,RA,0.04,WeatherDisplay:10.37,2013-05-20 14:27:00,
2013-05-20 10:32:00,65.7,65.1,0.00,WSW,239,8.1,8.1,98,0.01,RA,RA,0.04,WeatherDisplay:10.37,2013-05-20 14:32:00,
2013-05-20 10:37:00,66.0,65.1,0.00,SW,223,8.3,8.3,97,0.01,FEW,FEW,0.04,WeatherDisplay:10.37,2013-05-20 14:37:00,
2013-05-20 10:42:00,66.2,65.3,0.00,WSW,241,12.7,12.7,97,0.01,FEW,FEW,0.04,WeatherDisplay:10.37,2013-05-20 14:42:00,
2013-05-20 10:48:00,66.5,65.6,0.00,West,263,5.8,5.8,97,0.01,FEW,FEW,0.04,WeatherDisplay:10.37,2013-05-20 14:48:00,
2013-05-20 10:53:00,66.9,65.7,0.00,SW,232,10.4,10.4,96,0.01,FEW,FEW,0.04,WeatherDisplay:10.37,2013-05-20 14:53:00,
2013-05-20 10:58:00,67.2,66.0,0.00,WSW,239,11.5,11.5,96,0.01,FEW,FEW,0.04,WeatherDisplay:10.37,2013-05-20 14:58:00,
2013-05-20 11:03:00,67.5,66.3,0.00,WSW,258,12.7,12.7,96,0.01,FEW,FEW,0.04,WeatherDisplay:10.37,2013-05-20 15:03:00,
2013-05-20 11:08:00,67.9,66.4,0.00,West,261,6.9,6.9,95,0.01,FEW,FEW,0.04,WeatherDisplay:10.37,2013-05-20 15:08:00,
2013-05-20 11:13:00,68.2,66.7,0.00,SW,232,9.2,9.2,95,0.01,FEW,FEW,0.04,WeatherDisplay:10.37,2013-05-20 15:13:00,
2013-05-20 11:18:00,68.5,66.7,0.00,SW,229,10.4,10.4,94,0.01,FEW,FEW,0.04,WeatherDisplay:10.37,2013-05-20 15:18:00,
2013-05-20 11:23:00,68.6,66.5,0.00,West,277,9.2,9.2,93,0.01,FEW,FEW,0.04,WeatherDisplay:10.37,2013-05-20 15:23:00,
2013-05-20 11:28:00,68.9,67.1,0.00,WSW,248,6.7,6.7,94,0.00,FEW,FEW,0.04,WeatherDisplay:10.37,2013-05-20 15:28:00,
2013-05-20 11:34:00,69.2,67.1,0.00,WSW,244,10.7,10.7,93,0.00,FEW,FEW,0.04,WeatherDisplay:10.37,2013-05-20 15:34:00,
2013-05-20 11:39:00,69.4,66.7,0.00,WSW,258,9.8,9.8,91,0.00,FEW,FEW,0.04,WeatherDisplay:10.37,2013-05-20 15:39:00,
2013-05-20 11:44:00,69.7,67.0,0.00,West,271,8.8,8.8,91,0.00,FEW,FEW,0.04,WeatherDisplay:10.37,2013-05-20 15:44:00,
2013-05-20 11:49:00,70.0,66.9,0.00,WSW,250,11.5,11.5,90,0.00,FEW,FEW,0.04,WeatherDisplay:10.37,2013-05-20 15:49:00,
2013-05-20 11:54:00,70.2,66.8,0.00,SW,217,7.5,7.5,89,0.00,FEW,FEW,0.04,WeatherDisplay:10.37,2013-05-20 15:54:00,
2013-05-20 11:59:00,70.5,67.1,0.00,WSW,240,13.5,13.5,89,0.00,FEW,FEW,0.04,WeatherDisplay:10.37,2013-05-20 15:59:00,
2013-05-20 12:05:00,70.5,66.8,0.00,WSW,241,6.9,6.9,88,0.00,FEW,FEW,0.04,WeatherDisplay:10.37,2013-05-20 16:05:00,
2013-05-20 12:10:00,70.7,66.6,0.00,South,174,8.1,8.1,87,0.00,FEW,FEW,0.04,WeatherDisplay:10.37,2013-05-20 16:10:00,
2013-05-20 12:15:00,70.8,67.1,0.00,WNW,298,6.9,6.9,88,0.00,FEW,FEW,0.04,WeatherDisplay:10.37,2013-05-20 16:15:00,
2013-05-20 12:21:00,71.0,66.6,0.00,WSW,244,10.6,10.6,86,0.00,FEW,FEW,0.04,WeatherDisplay:10.37,2013-05-20 16:21:00,
2013-05-20 12:26:00,71.3,66.9,0.00,West,260,8.1,8.1,86,0.00,FEW,FEW,0.04,WeatherDisplay:10.37,2013-05-20 16:26:00,
2013-05-20 12:31:00,71.4,66.7,0.00,WSW,255,8.0,14.0,85,0.00,FEW,FEW,0.04,WeatherDisplay:10.37,2013-05-20 16:31:00,
2013-05-20 12:36:00,71.6,66.5,0.00,SW,229,9.2,9.2,84,0.00,FEW,FEW,0.04,WeatherDisplay:10.37,2013-05-20 16:36:00,
2013-05-20 12:41:00,71.7,66.6,0.00,WSW,250,12.7,12.7,84,0.00,FEW,FEW,0.04,WeatherDisplay:10.37,2013-05-20 16:41:00,
2013-05-20 12:47:00,71.9,66.5,0.00,WSW,237,9.2,9.2,83,0.00,FEW,FEW,0.04,WeatherDisplay:10.37,2013-05-20 16:47:00,
2013-05-20 12:52:00,72.0,66.6,0.00,WNW,282,10.4,10.4,83,0.00,FEW,FEW,0.04,WeatherDisplay:10.37,2013-05-20 16:52:00,
2013-05-20 12:57:00,72.1,67.0,0.00,WSW,253,5.5,5.5,84,0.00,FEW,FEW,0.04,WeatherDisplay:10.37,2013-05-20 16:57:00,
2013-05-20 13:02:00,72.3,66.8,0.00,WSW,248,10.4,10.4,83,0.00,BKN,BKN,0.04,WeatherDisplay:10.37,2013-05-20 17:02:00,
2013-05-20 13:07:00,72.4,66.9,0.00,NE,48,13.8,13.8,83,0.00,BKN,BKN,0.04,WeatherDisplay:10.37,2013-05-20 17:07:00,
2013-05-20 13:12:00,72.5,67.0,0.00,North,1,6.9,6.9,83,0.00,BKN,BKN,0.04,WeatherDisplay:10.37,2013-05-20 17:12:00,
2013-05-20 13:18:00,72.8,67.0,0.00,SW,229,9.2,9.2,82,0.00,BKN,BKN,0.04,WeatherDisplay:10.37,2013-05-20 17:18:00,
2013-05-20 13:23:00,73.0,67.5,0.00,WSW,256,1.2,1.2,83,0.00,BKN,BKN,0.04,WeatherDisplay:10.37,2013-05-20 17:23:00,
2013-05-20 13:28:00,73.0,67.2,0.00,West,268,10.4,10.4,82,0.00,BKN,BKN,0.04,WeatherDisplay:10.37,2013-05-20 17:28:00,
2013-05-20 13:33:00,73.1,67.3,0.00,West,281,4.6,4.6,82,0.00,BKN,BKN,0.04,WeatherDisplay:10.37,2013-05-20 17:33:00,
2013-05-20 13:38:00,73.2,67.4,0.00,SW,229,4.8,4.8,82,0.00,BKN,BKN,0.04,WeatherDisplay:10.37,2013-05-20 17:38:00,
2013-05-20 13:44:00,73.3,67.1,0.00,SW,234,8.1,8.1,81,0.00,BKN,BKN,0.04,WeatherDisplay:10.37,2013-05-20 17:44:00,
2013-05-20 13:49:00,73.4,66.9,0.00,WNW,285,8.1,8.1,80,0.00,BKN,BKN,0.04,WeatherDisplay:10.37,2013-05-20 17:49:00,
2013-05-20 13:54:00,73.4,66.9,0.00,WSW,244,10.4,10.4,80,0.00,BKN,BKN,0.04,WeatherDisplay:10.37,2013-05-20 17:54:00,
2013-05-20 13:59:00,73.5,66.9,0.00,NW,306,4.6,4.6,80,0.00,BKN,BKN,0.04,WeatherDisplay:10.37,2013-05-20 17:59:00,
2013-05-20 14:04:00,73.7,66.8,0.00,SW,226,6.9,6.9,79,0.00,CLR,CLR,0.04,WeatherDisplay:10.37,2013-05-20 18:04:00,
2013-05-20 14:09:00,73.7,66.4,0.00,West,261,9.2,9.2,78,0.00,CLR,CLR,0.04,WeatherDisplay:10.37,2013-05-20 18:09:00,
2013-05-20 14:14:00,74.0,66.7,0.00,NW,305,4.6,4.6,78,0.00,CLR,CLR,0.04,WeatherDisplay:10.37,2013-05-20 18:14:00,
2013-05-20 14:20:00,74.4,67.1,0.00,NW,313,8.1,8.1,78,0.00,CLR,CLR,0.04,WeatherDisplay:10.37,2013-05-20 18:20:00,
2013-05-20 14:25:00,74.5,67.2,0.00,NW,313,3.5,3.5,78,0.00,CLR,CLR,0.04,WeatherDisplay:10.37,2013-05-20 18:25:00,
2013-05-20 14:30:00,74.7,67.4,0.00,WSW,243,7.6,7.6,78,0.00,CLR,CLR,0.04,WeatherDisplay:10.37,2013-05-20 18:30:00,
2013-05-20 14:35:00,74.7,67.0,0.00,SW,232,9.2,9.2,77,0.00,CLR,CLR,0.04,WeatherDisplay:10.37,2013-05-20 18:35:00,
2013-05-20 14:40:00,74.8,67.1,0.00,West,278,5.8,5.8,77,0.00,CLR,CLR,0.04,WeatherDisplay:10.37,2013-05-20 18:40:00,
2013-05-20 14:46:00,74.9,66.8,0.00,NW,309,6.9,6.9,76,0.00,CLR,CLR,0.04,WeatherDisplay:10.37,2013-05-20 18:46:00,
2013-05-20 14:51:00,75.0,66.9,0.00,WSW,247,10.4,10.4,76,0.00,CLR,CLR,0.04,WeatherDisplay:10.37,2013-05-20 18:51:00,
2013-05-20 14:56:00,75.3,67.2,0.00,NW,313,6.9,6.9,76,0.00,CLR,CLR,0.04,WeatherDisplay:10.37,2013-05-20 18:56:00,
2013-05-20 15:01:00,75.7,67.2,0.00,WSW,240,10.4,10.4,75,0.00,FEW,FEW,0.04,WeatherDisplay:10.37,2013-05-20 19:01:00,
2013-05-20 15:06:00,75.8,67.3,0.00,SSW,209,6.9,6.9,75,0.00,FEW,FEW,0.04,WeatherDisplay:10.37,2013-05-20 19:06:00,
2013-05-20 15:11:00,76.0,67.5,0.00,WSW,246,6.9,6.9,75,0.00,FEW,FEW,0.04,WeatherDisplay:10.37,2013-05-20 19:11:00,
2013-05-20 15:16:00,76.1,68.0,0.00,West,272,5.8,5.8,76,0.00,FEW,FEW,0.04,WeatherDisplay:10.37,2013-05-20 19:16:00,
2013-05-20 15:22:00,76.2,67.7,0.00,NE,37,8.1,8.1,75,0.00,FEW,FEW,0.04,WeatherDisplay:10.37,2013-05-20 19:22:00,
2013-05-20 15:27:00,76.2,67.7,0.00,WSW,251,5.8,5.8,75,0.00,FEW,FEW,0.04,WeatherDisplay:10.37,2013-05-20 19:27:00,
2013-05-20 15:32:00,76.2,67.7,0.00,WNW,292,9.2,9.2,75,0.00,FEW,FEW,0.04,WeatherDisplay:10.37,2013-05-20 19:32:00,
2013-05-20 15:37:00,76.3,67.4,0.00,WSW,248,7.3,7.3,74,0.00,FEW,FEW,0.04,WeatherDisplay:10.37,2013-05-20 19:37:00,
2013-05-20 15:42:00,76.5,67.6,0.00,WSW,246,9.2,9.2,74,0.00,FEW,FEW,0.04,WeatherDisplay:10.37,2013-05-20 19:42:00,
2013-05-20 15:48:00,76.6,67.7,0.00,WSW,243,5.8,5.8,74,0.00,FEW,FEW,0.04,WeatherDisplay:10.37,2013-05-20 19:48:00,
2013-05-20 15:53:00,76.5,67.2,0.00,SW,227,9.7,9.7,73,0.00,FEW,FEW,0.04,WeatherDisplay:10.37,2013-05-20 19:53:00,
2013-05-20 15:58:00,76.9,67.6,0.00,WSW,246,6.9,6.9,73,0.00,FEW,FEW,0.04,WeatherDisplay:10.37,2013-05-20 19:58:00,
2013-05-20 16:03:00,77.2,67.5,0.00,WSW,237,10.4,10.4,72,0.00,SCT,SCT,0.04,WeatherDisplay:10.37,2013-05-20 20:03:00,
2013-05-20 16:08:00,78.1,68.3,0.00,West,260,10.4,10.4,72,0.00,SCT,SCT,0.04,WeatherDisplay:10.37,2013-05-20 20:08:00,
2013-05-20 16:14:00,78.4,68.6,0.00,West,264,5.8,5.8,72,0.00,SCT,SCT,0.04,WeatherDisplay:10.37,2013-05-20 20:14:00,
2013-05-20 16:19:00,78.8,69.0,0.00,SW,230,5.3,5.3,72,0.00,SCT,SCT,0.04,WeatherDisplay:10.37,2013-05-20 20:19:00,
2013-05-20 16:24:00,78.9,68.7,0.00,West,261,10.4,10.4,71,0.00,SCT,SCT,0.04,WeatherDisplay:10.37,2013-05-20 20:24:00,
2013-05-20 16:29:00,79.1,69.3,0.00,WSW,243,3.3,3.3,72,0.00,SCT,SCT,0.04,WeatherDisplay:10.37,2013-05-20 20:29:00,
2013-05-20 16:34:00,79.3,69.1,0.00,WSW,246,5.8,5.8,71,0.00,SCT,SCT,0.04,WeatherDisplay:10.37,2013-05-20 20:34:00,
2013-05-20 16:39:00,79.4,69.2,0.00,WSW,257,5.8,5.8,71,0.00,SCT,SCT,0.04,WeatherDisplay:10.37,2013-05-20 20:39:00,
2013-05-20 16:45:00,79.8,69.6,0.00,SW,217,2.8,2.8,71,0.00,SCT,SCT,0.04,WeatherDisplay:10.37,2013-05-20 20:45:00,
2013-05-20 16:50:00,79.8,69.1,0.00,WSW,247,4.6,4.6,70,0.00,SCT,SCT,0.04,WeatherDisplay:10.37,2013-05-20 20:50:00,
2013-05-20 16:55:00,79.8,69.1,0.00,West,281,5.8,5.8,70,0.00,SCT,SCT,0.04,WeatherDisplay:10.37,2013-05-20 20:55:00,
2013-05-20 17:00:00,79.9,69.7,0.00,WSW,250,4.1,4.1,71,0.01,RA,RA,0.05,WeatherDisplay:10.37,2013-05-20 21:00:00,
2013-05-20 17:05:00,80.1,69.4,0.00,West,277,3.5,3.5,70,0.01,RA,RA,0.05,WeatherDisplay:10.37,2013-05-20 21:05:00,
2013-05-20 17:11:00,80.1,69.0,0.00,WSW,237,8.1,8.1,69,0.01,CLR,CLR,0.05,WeatherDisplay:10.37,2013-05-20 21:11:00,
2013-05-20 17:16:00,80.1,69.0,0.00,West,280,5.8,5.8,69,0.01,CLR,CLR,0.05,WeatherDisplay:10.37,2013-05-20 21:16:00,
2013-05-20 17:21:00,80.3,69.6,0.00,WSW,250,6.9,6.9,70,0.01,CLR,CLR,0.05,WeatherDisplay:10.37,2013-05-20 21:21:00,
2013-05-20 17:26:00,80.2,69.1,0.00,West,261,5.8,5.8,69,0.01,CLR,CLR,0.05,WeatherDisplay:10.37,2013-05-20 21:26:00,
2013-05-20 17:31:00,80.2,68.7,0.00,West,267,8.1,8.1,68,0.01,CLR,CLR,0.05,WeatherDisplay:10.37,2013-05-20 21:31:00,
2013-05-20 17:36:00,80.3,68.8,0.00,WSW,239,5.8,5.8,68,0.01,CLR,CLR,0.05,WeatherDisplay:10.37,2013-05-20 21:36:00,
2013-05-20 17:42:00,80.4,68.9,0.00,West,265,6.9,6.9,68,0.01,CLR,CLR,0.05,WeatherDisplay:10.37,2013-05-20 21:42:00,
2013-05-20 17:47:00,80.4,68.4,0.00,WSW,241,4.7,4.7,67,0.01,CLR,CLR,0.05,WeatherDisplay:10.37,2013-05-20 21:47:00,
2013-05-20 17:52:00,80.4,68.9,0.00,SW,229,6.9,6.9,68,0.01,CLR,CLR,0.05,WeatherDisplay:10.37,2013-05-20 21:52:00,
2013-05-20 17:57:00,80.4,68.9,0.00,WSW,237,4.3,4.3,68,0.01,CLR,CLR,0.05,WeatherDisplay:10.37,2013-05-20 21:57:00,
2013-05-20 18:03:00,80.3,68.8,0.00,WSW,250,6.9,6.9,68,0.00,BKN,BKN,0.05,WeatherDisplay:10.37,2013-05-20 22:03:00,
2013-05-20 18:08:00,80.5,69.0,0.00,WSW,254,4.6,4.6,68,0.00,BKN,BKN,0.05,WeatherDisplay:10.37,2013-05-20 22:08:00,
2013-05-20 18:13:00,80.3,68.8,0.00,West,281,3.5,3.5,68,0.00,BKN,BKN,0.05,WeatherDisplay:10.37,2013-05-20 22:13:00,
2013-05-20 18:18:00,80.4,69.3,0.00,WSW,258,3.5,3.5,69,0.00,BKN,BKN,0.05,WeatherDisplay:10.37,2013-05-20 22:18:00,
2013-05-20 18:23:00,80.5,69.4,0.00,WNW,299,2.3,2.3,69,0.00,BKN,BKN,0.05,WeatherDisplay:10.37,2013-05-20 22:23:00,
2013-05-20 18:28:00,80.5,69.4,0.00,SW,232,6.9,6.9,69,0.00,BKN,BKN,0.05,WeatherDisplay:10.37,2013-05-20 22:28:00,
2013-05-20 18:33:00,80.5,69.4,0.00,WSW,251,4.6,4.6,69,0.00,BKN,BKN,0.05,WeatherDisplay:10.37,2013-05-20 22:33:00,
2013-05-20 18:39:00,80.5,69.4,0.00,West,268,2.5,2.5,69,0.00,BKN,BKN,0.05,WeatherDisplay:10.37,2013-05-20 22:39:00,
2013-05-20 18:44:00,80.4,69.3,0.00,SW,232,5.8,5.8,69,0.00,BKN,BKN,0.05,WeatherDisplay:10.37,2013-05-20 22:44:00,
2013-05-20 18:49:00,80.3,69.2,0.00,WSW,240,2.3,2.3,69,0.00,BKN,BKN,0.05,WeatherDisplay:10.37,2013-05-20 22:49:00,
2013-05-20 18:55:00,80.4,69.7,0.00,WSW,257,1.4,1.4,70,0.00,BKN,BKN,0.05,WeatherDisplay:10.37,2013-05-20 22:55:00,
2013-05-20 19:00:00,80.4,69.8,0.00,SW,215,0.0,6.0,70,0.00,BKN,BKN,0.05,WeatherDisplay:10.37,2013-05-20 23:00:00,
2013-05-20 19:05:00,80.4,69.7,0.00,WSW,247,1.2,1.2,70,0.00,BKN,BKN,0.05,WeatherDisplay:10.37,2013-05-20 23:05:00,
2013-05-20 19:10:00,80.5,70.2,0.00,WSW,247,0.0,0.0,71,0.00,BKN,BKN,0.05,WeatherDisplay:10.37,2013-05-20 23:10:00,
2013-05-20 19:15:00,80.5,70.2,0.00,WSW,247,0.0,0.0,71,0.00,BKN,BKN,0.05,WeatherDisplay:10.37,2013-05-20 23:15:00,
2013-05-20 19:21:00,80.5,70.6,0.00,WSW,247,0.0,0.0,72,0.00,BKN,BKN,0.05,WeatherDisplay:10.37,2013-05-20 23:21:00,
2013-05-20 19:26:00,80.4,70.5,0.00,WSW,247,0.0,0.0,72,0.00,BKN,BKN,0.05,WeatherDisplay:10.37,2013-05-20 23:26:00,
2013-05-20 19:31:00,80.3,70.4,0.00,WSW,247,0.0,0.0,72,0.00,BKN,BKN,0.05,WeatherDisplay:10.37,2013-05-20 23:31:00,
2013-05-20 19:36:00,80.4,70.9,0.00,WSW,247,0.0,0.0,73,0.00,BKN,BKN,0.05,WeatherDisplay:10.37,2013-05-20 23:36:00,
2013-05-20 19:42:00,80.1,70.7,0.00,WSW,247,0.0,0.0,73,0.00,BKN,BKN,0.05,WeatherDisplay:10.37,2013-05-20 23:42:00,
2013-05-20 19:47:00,80.1,71.1,0.00,WSW,247,0.0,0.0,74,0.00,BKN,BKN,0.05,WeatherDisplay:10.37,2013-05-20 23:47:00,
2013-05-20 19:52:00,80.0,71.0,0.00,WSW,247,0.0,0.0,74,0.00,BKN,BKN,0.05,WeatherDisplay:10.37,2013-05-20 23:52:00,
2013-05-20 19:57:00,79.9,70.9,0.00,WSW,247,0.0,0.0,74,0.00,BKN,BKN,0.05,WeatherDisplay:10.37,2013-05-20 23:57:00,
2013-05-20 20:02:00,79.7,70.7,0.00,WSW,247,0.0,0.0,74,0.00,BKN,BKN,0.05,WeatherDisplay:10.37,2013-05-21 00:02:00,
2013-05-20 20:07:00,79.5,70.5,0.00,WSW,247,0.0,0.0,74,0.00,BKN,BKN,0.05,WeatherDisplay:10.37,2013-05-21 00:07:00,
2013-05-20 20:12:00,79.4,70.8,0.00,WSW,247,0.0,0.0,75,0.00,BKN,BKN,0.05,WeatherDisplay:10.37,2013-05-21 00:12:00,
2013-05-20 20:17:00,79.2,70.6,0.00,WSW,247,0.0,0.0,75,0.00,BKN,BKN,0.05,WeatherDisplay:10.37,2013-05-21 00:17:00,
2013-05-20 20:23:00,79.0,70.4,0.00,WSW,247,0.0,0.0,75,0.00,BKN,BKN,0.05,WeatherDisplay:10.37,2013-05-21 00:23:00,
2013-05-20 20:28:00,78.8,70.2,0.00,WSW,247,0.0,0.0,75,0.00,BKN,BKN,0.05,WeatherDisplay:10.37,2013-05-21 00:28:00,
2013-05-20 20:33:00,78.7,70.1,0.00,WSW,247,0.0,0.0,75,0.00,BKN,BKN,0.05,WeatherDisplay:10.37,2013-05-21 00:33:00,
2013-05-20 20:38:00,78.4,70.2,0.00,WSW,247,0.0,0.0,76,0.00,BKN,BKN,0.05,WeatherDisplay:10.37,2013-05-21 00:38:00,
2013-05-20 20:43:00,78.2,70.0,0.00,WSW,247,0.0,0.0,76,0.00,BKN,BKN,0.05,WeatherDisplay:10.37,2013-05-21 00:43:00,
2013-05-20 20:48:00,78.1,69.9,0.00,WSW,247,0.0,0.0,76,0.00,BKN,BKN,0.05,WeatherDisplay:10.37,2013-05-21 00:48:00,
2013-05-20 20:54:00,78.0,69.8,0.00,WSW,247,0.0,0.0,76,0.00,BKN,BKN,0.05,WeatherDisplay:10.37,2013-05-21 00:54:00,
2013-05-20 20:59:00,77.9,69.7,0.00,WSW,247,0.0,0.0,76,0.00,BKN,BKN,0.05,WeatherDisplay:10.37,2013-05-21 00:59:00,
2013-05-20 21:04:00,77.8,69.6,0.00,WSW,247,0.0,0.0,76,0.00,BKN,BKN,0.05,WeatherDisplay:10.37,2013-05-21 01:04:00,
2013-05-20 21:09:00,77.5,69.7,0.00,WSW,247,0.0,0.0,77,0.00,BKN,BKN,0.05,WeatherDisplay:10.37,2013-05-21 01:09:00,
2013-05-20 21:15:00,77.3,69.5,0.00,WSW,247,0.0,0.0,77,0.00,BKN,BKN,0.05,WeatherDisplay:10.37,2013-05-21 01:15:00,
2013-05-20 21:20:00,77.1,69.7,0.00,North,352,0.9,0.9,78,0.00,BKN,BKN,0.05,WeatherDisplay:10.37,2013-05-21 01:20:00,
2013-05-20 21:25:00,77.1,69.7,0.00,North,352,0.0,0.0,78,0.00,BKN,BKN,0.05,WeatherDisplay:10.37,2013-05-21 01:25:00,
2013-05-20 21:30:00,76.9,69.5,0.00,North,352,0.0,1.0,78,0.00,BKN,BKN,0.05,WeatherDisplay:10.37,2013-05-21 01:30:00,
2013-05-20 21:35:00,76.8,69.4,0.00,North,352,0.0,0.0,78,0.00,BKN,BKN,0.05,WeatherDisplay:10.37,2013-05-21 01:35:00,
2013-05-20 21:41:00,76.9,69.5,0.00,North,352,0.0,0.0,78,0.00,BKN,BKN,0.05,WeatherDisplay:10.37,2013-05-21 01:41:00,
2013-05-20 21:46:00,76.6,69.2,0.00,North,352,0.0,0.0,78,0.00,BKN,BKN,0.05,WeatherDisplay:10.37,2013-05-21 01:46:00,
2013-05-20 21:51:00,76.6,69.6,0.00,North,352,0.0,0.0,79,0.00,BKN,BKN,0.05,WeatherDisplay:10.37,2013-05-21 01:51:00,
2013-05-20 21:56:00,76.4,69.4,0.00,North,352,0.0,0.0,79,0.00,BKN,BKN,0.05,WeatherDisplay:10.37,2013-05-21 01:56:00,
2013-05-20 22:01:00,76.3,69.3,0.00,North,352,0.0,0.0,79,0.00,BKN,BKN,0.05,WeatherDisplay:10.37,2013-05-21 02:01:00,
2013-05-20 22:06:00,76.2,69.2,0.00,North,352,0.0,0.0,79,0.00,BKN,BKN,0.05,WeatherDisplay:10.37,2013-05-21 02:06:00,
2013-05-20 22:11:00,76.0,69.4,0.00,North,352,0.0,0.0,80,0.00,BKN,BKN,0.05,WeatherDisplay:10.37,2013-05-21 02:11:00,
2013-05-20 22:16:00,75.8,69.2,0.00,North,352,0.0,0.0,80,0.00,BKN,BKN,0.05,WeatherDisplay:10.37,2013-05-21 02:16:00,
2013-05-20 22:21:00,75.9,69.3,0.00,North,352,0.0,0.0,80,0.00,BKN,BKN,0.05,WeatherDisplay:10.37,2013-05-21 02:21:00,
2013-05-20 22:27:00,75.8,69.2,0.00,North,352,0.0,0.0,80,0.00,BKN,BKN,0.05,WeatherDisplay:10.37,2013-05-21 02:27:00,
2013-05-20 22:32:00,75.8,69.6,0.00,North,352,0.0,0.0,81,0.00,BKN,BKN,0.05,WeatherDisplay:10.37,2013-05-21 02:32:00,
2013-05-20 22:37:00,75.6,69.4,0.00,North,352,0.0,0.0,81,0.00,BKN,BKN,0.05,WeatherDisplay:10.37,2013-05-21 02:37:00,
2013-05-20 22:42:00,75.4,69.2,0.00,North,352,0.0,0.0,81,0.00,BKN,BKN,0.05,WeatherDisplay:10.37,2013-05-21 02:42:00,
2013-05-20 22:48:00,75.4,69.2,0.00,North,352,0.0,0.0,81,0.00,BKN,BKN,0.05,WeatherDisplay:10.37,2013-05-21 02:48:00,
2013-05-20 22:53:00,75.3,69.1,0.00,North,352,0.0,0.0,81,0.00,BKN,BKN,0.05,WeatherDisplay:10.37,2013-05-21 02:53:00,
2013-05-20 22:58:00,75.2,69.0,0.00,North,352,0.0,0.0,81,0.00,BKN,BKN,0.05,WeatherDisplay:10.37,2013-05-21 02:58:00,
2013-05-20 23:03:00,75.1,68.9,0.00,North,352,0.0,0.0,81,0.00,BKN,BKN,0.05,WeatherDisplay:10.37,2013-05-21 03:03:00,
2013-05-20 23:08:00,74.9,69.0,0.00,North,352,0.0,0.0,82,0.00,BKN,BKN,0.05,WeatherDisplay:10.37,2013-05-21 03:08:00,
2013-05-20 23:13:00,74.8,68.9,0.00,North,352,0.0,0.0,82,0.00,BKN,BKN,0.05,WeatherDisplay:10.37,2013-05-21 03:13:00,
2013-05-20 23:19:00,74.8,68.9,0.00,North,352,0.0,0.0,82,0.00,BKN,BKN,0.05,WeatherDisplay:10.37,2013-05-21 03:19:00,
2013-05-20 23:24:00,74.6,68.7,0.00,North,352,0.0,0.0,82,0.00,BKN,BKN,0.05,WeatherDisplay:10.37,2013-05-21 03:24:00,
2013-05-20 23:29:00,74.4,68.9,0.00,North,352,0.0,0.0,83,0.00,BKN,BKN,0.05,WeatherDisplay:10.37,2013-05-21 03:29:00,
2013-05-20 23:34:00,74.2,68.7,0.00,North,352,0.0,0.0,83,0.00,BKN,BKN,0.05,WeatherDisplay:10.37,2013-05-21 03:34:00,
2013-05-20 23:39:00,74.2,68.7,0.00,North,352,0.0,0.0,83,0.00,BKN,BKN,0.05,WeatherDisplay:10.37,2013-05-21 03:39:00,
2013-05-20 23:44:00,74.1,68.6,0.00,North,352,0.0,0.0,83,0.00,BKN,BKN,0.05,WeatherDisplay:10.37,2013-05-21 03:44:00,
2013-05-20 23:50:00,73.9,68.4,0.00,North,352,0.0,0.0,83,0.00,BKN,BKN,0.05,WeatherDisplay:10.37,2013-05-21 03:50:00,
2013-05-20 23:55:00,73.8,68.7,0.00,North,352,0.0,0.0,84,0.00,BKN,BKN,0.05,WeatherDisplay:10.37,2013-05-21 03:55:00,